When you browse on this site, cookies collect data to enhance your experience and personalize the content and advertising you see.
Visit our Privacy Policy to learn more. By continuing to use the site, you agree to this use of cookies and data.
  • In Deutschland
  • Länderverzeichnis
  • Für 7 Tage
  • Wassertemperatur
  • Satellitenkarten
  • Wetterkarte
  • Widgets
  • user-avatar
    Anmelden

    Stündliche Wetter Kukawki

    Heute, 22 Mai, Mittwoch

    Zeit Temperatur Niederschläge Wind Luftdruck Luftfeuchtigkeit
    00:00 +11°C° 0 mm 4 m/S 737 mmHg 89%
    01:00 +11°C° 0 mm 4 m/S 737 mmHg 91%
    02:00 +11°C° 0 mm 4 m/S 737 mmHg 94%
    03:00 +10°C° 0 mm 4 m/S 737 mmHg 95%
    04:00 +10°C° 0 mm 4 m/S 737 mmHg 95%
    05:00 +9°C° 0 mm 5 m/S 737 mmHg 95%
    06:00 +12°C° 0 mm 5 m/S 738 mmHg 91%
    07:00 +13°C° 0 mm 5 m/S 738 mmHg 88%
    08:00 +14°C° 0 mm 5 m/S 738 mmHg 83%
    09:00 +15°C° 0.2 mm 5 m/S 738 mmHg 82%
    10:00 +15°C° 0.2 mm 6 m/S 738 mmHg 80%
    11:00 +16°C° 0.2 mm 6 m/S 738 mmHg 79%
    12:00 +17°C° 0.3 mm 5 m/S 738 mmHg 77%
    13:00 +19°C° 0.3 mm 5 m/S 738 mmHg 75%
    14:00 +19°C° 0.3 mm 5 m/S 738 mmHg 73%
    15:00 +19°C° 0.5 mm 4 m/S 738 mmHg 74%
    16:00 +19°C° 0.5 mm 4 m/S 738 mmHg 75%
    17:00 +20°C° 0.5 mm 4 m/S 738 mmHg 75%
    18:00 +18°C° 0.2 mm 3 m/S 738 mmHg 80%
    19:00 +17°C° 0.2 mm 3 m/S 738 mmHg 85%
    20:00 +16°C° 0.2 mm 2 m/S 738 mmHg 90%
    21:00 +15°C° 0 mm 2 m/S 738 mmHg 92%
    22:00 +15°C° 0 mm 2 m/S 739 mmHg 93%
    23:00 +14°C° 0 mm 2 m/S 739 mmHg 95%

    Morgen, 23 Mai, Donnerstag

    Zeit Temperatur Niederschläge Wind Luftdruck Luftfeuchtigkeit
    00:00 +13°C° 0 mm 2 m/S 739 mmHg 95%
    01:00 +13°C° 0 mm 1 m/S 739 mmHg 95%
    02:00 +13°C° 0 mm 1 m/S 740 mmHg 95%
    03:00 +12°C° 0 mm 1 m/S 740 mmHg 95%
    04:00 +12°C° 0 mm 1 m/S 740 mmHg 95%
    05:00 +12°C° 0 mm 1 m/S 740 mmHg 96%
    06:00 +14°C° 0 mm 1 m/S 740 mmHg 92%
    07:00 +15°C° 0 mm 1 m/S 741 mmHg 88%
    08:00 +18°C° 0 mm 1 m/S 741 mmHg 84%
    09:00 +19°C° 0 mm 1 m/S 741 mmHg 78%
    10:00 +20°C° 0 mm 1 m/S 741 mmHg 72%
    11:00 +21°C° 0 mm 2 m/S 742 mmHg 66%
    12:00 +21°C° 0 mm 2 m/S 741 mmHg 64%
    13:00 +23°C° 0 mm 2 m/S 741 mmHg 61%
    14:00 +24°C° 0 mm 2 m/S 741 mmHg 58%
    15:00 +24°C° 0.5 mm 2 m/S 741 mmHg 62%
    16:00 +22°C° 0.5 mm 3 m/S 741 mmHg 65%
    17:00 +22°C° 0.5 mm 3 m/S 741 mmHg 69%
    18:00 +21°C° 0.9 mm 3 m/S 741 mmHg 76%
    19:00 +19°C° 0.9 mm 4 m/S 741 mmHg 83%
    20:00 +18°C° 0.9 mm 4 m/S 742 mmHg 90%
    21:00 +17°C° 0.3 mm 4 m/S 742 mmHg 92%
    22:00 +14°C° 0.3 mm 4 m/S 742 mmHg 94%
    23:00 +13°C° 0.3 mm 5 m/S 742 mmHg 96%

    übermorgen, 24 Mai, Freitag

    Zeit Temperatur Niederschläge Wind Luftdruck Luftfeuchtigkeit
    00:00 +13°C° 0.1 mm 4 m/S 742 mmHg 96%
    01:00 +12°C° 0.1 mm 4 m/S 743 mmHg 96%
    02:00 +11°C° 0.1 mm 4 m/S 743 mmHg 96%
    03:00 +11°C° 0 mm 4 m/S 743 mmHg 95%
    04:00 +11°C° 0 mm 4 m/S 743 mmHg 94%
    05:00 +11°C° 0 mm 4 m/S 743 mmHg 92%
    06:00 +12°C° 0 mm 4 m/S 743 mmHg 89%
    07:00 +12°C° 0 mm 4 m/S 743 mmHg 86%
    08:00 +13°C° 0 mm 4 m/S 743 mmHg 83%
    09:00 +14°C° 0 mm 4 m/S 743 mmHg 80%
    10:00 +17°C° 0 mm 4 m/S 743 mmHg 78%
    11:00 +18°C° 0 mm 4 m/S 743 mmHg 75%
    12:00 +19°C° 0 mm 4 m/S 743 mmHg 73%
    13:00 +20°C° 0 mm 4 m/S 743 mmHg 72%
    14:00 +20°C° 0 mm 4 m/S 743 mmHg 70%
    15:00 +20°C° 0.3 mm 4 m/S 742 mmHg 70%
    16:00 +21°C° 0.3 mm 4 m/S 742 mmHg 70%
    17:00 +21°C° 0.3 mm 5 m/S 742 mmHg 70%
    18:00 +19°C° 0.1 mm 4 m/S 742 mmHg 74%
    19:00 +18°C° 0.1 mm 4 m/S 742 mmHg 78%
    20:00 +17°C° 0.1 mm 3 m/S 742 mmHg 82%
    21:00 +14°C° 0 mm 3 m/S 742 mmHg 85%
    22:00 +13°C° 0 mm 3 m/S 742 mmHg 88%
    23:00 +12°C° 0 mm 3 m/S 742 mmHg 90%

    25 Mai, Samstag

    Zeit Temperatur Niederschläge Wind Luftdruck Luftfeuchtigkeit
    00:00 +11°C° 0 mm 3 m/S 742 mmHg 91%
    01:00 +10°C° 0 mm 3 m/S 742 mmHg 91%
    02:00 +10°C° 0 mm 2 m/S 742 mmHg 91%
    03:00 +10°C° 0 mm 2 m/S 742 mmHg 89%
    04:00 +9°C° 0 mm 2 m/S 742 mmHg 88%
    05:00 +9°C° 0 mm 2 m/S 742 mmHg 87%
    06:00 +12°C° 0 mm 2 m/S 742 mmHg 82%
    07:00 +14°C° 0 mm 2 m/S 742 mmHg 77%
    08:00 +16°C° 0 mm 2 m/S 742 mmHg 72%
    09:00 +18°C° 0.1 mm 3 m/S 742 mmHg 69%
    10:00 +19°C° 0.1 mm 3 m/S 742 mmHg 66%
    11:00 +20°C° 0.1 mm 4 m/S 742 mmHg 63%
    12:00 +21°C° 0.2 mm 4 m/S 742 mmHg 61%
    13:00 +21°C° 0.2 mm 5 m/S 741 mmHg 59%
    14:00 +21°C° 0.2 mm 5 m/S 741 mmHg 57%
    15:00 +21°C° 0.2 mm 5 m/S 741 mmHg 61%
    16:00 +20°C° 0.2 mm 4 m/S 741 mmHg 66%
    17:00 +19°C° 0.2 mm 4 m/S 741 mmHg 70%
    18:00 +18°C° 0 mm 4 m/S 741 mmHg 73%
    19:00 +17°C° 0 mm 3 m/S 741 mmHg 75%
    20:00 +16°C° 0 mm 3 m/S 741 mmHg 78%
    21:00 +15°C° 0 mm 2 m/S 741 mmHg 81%
    22:00 +14°C° 0 mm 2 m/S 741 mmHg 84%
    23:00 +12°C° 0 mm 2 m/S 741 mmHg 86%

    26 Mai, Sonntag

    Zeit Temperatur Niederschläge Wind Luftdruck Luftfeuchtigkeit
    00:00 +12°C° 0 mm 2 m/S 742 mmHg 88%
    01:00 +11°C° 0 mm 3 m/S 742 mmHg 89%
    02:00 +11°C° 0 mm 3 m/S 742 mmHg 90%
    03:00 +10°C° 0 mm 3 m/S 742 mmHg 91%
    04:00 +9°C° 0 mm 3 m/S 742 mmHg 93%
    05:00 +9°C° 0 mm 3 m/S 741 mmHg 95%
    06:00 +10°C° 0 mm 4 m/S 741 mmHg 88%
    07:00 +11°C° 0 mm 4 m/S 742 mmHg 82%
    08:00 +13°C° 0 mm 5 m/S 742 mmHg 75%
    09:00 +13°C° 0 mm 5 m/S 741 mmHg 72%
    10:00 +14°C° 0 mm 5 m/S 741 mmHg 70%
    11:00 +14°C° 0 mm 6 m/S 741 mmHg 68%
    12:00 +14°C° 0 mm 6 m/S 741 mmHg 68%
    13:00 +14°C° 0 mm 6 m/S 741 mmHg 69%
    14:00 +14°C° 0 mm 6 m/S 740 mmHg 69%
    15:00 +14°C° 0 mm 6 m/S 740 mmHg 70%
    16:00 +13°C° 0 mm 6 m/S 740 mmHg 70%
    17:00 +13°C° 0 mm 5 m/S 740 mmHg 70%
    18:00 +12°C° 0 mm 5 m/S 740 mmHg 73%
    19:00 +12°C° 0 mm 5 m/S 740 mmHg 76%
    20:00 +11°C° 0 mm 4 m/S 740 mmHg 79%
    21:00 +10°C° 0 mm 4 m/S 741 mmHg 80%
    22:00 +7°C° 0 mm 4 m/S 741 mmHg 82%
    23:00 +6°C° 0 mm 4 m/S 741 mmHg 84%

    27 Mai, Montag

    Zeit Temperatur Niederschläge Wind Luftdruck Luftfeuchtigkeit
    00:00 +6°C° 0 mm 4 m/S 741 mmHg 83%
    01:00 +5°C° 0 mm 4 m/S 742 mmHg 82%
    02:00 +5°C° 0 mm 4 m/S 742 mmHg 82%
    03:00 +5°C° 0 mm 5 m/S 742 mmHg 82%
    04:00 +5°C° 0 mm 5 m/S 742 mmHg 82%
    05:00 +5°C° 0 mm 5 m/S 742 mmHg 82%
    06:00 +6°C° 0 mm 5 m/S 743 mmHg 78%
    07:00 +8°C° 0 mm 5 m/S 743 mmHg 74%
    08:00 +9°C° 0 mm 6 m/S 743 mmHg 70%
    09:00 +10°C° 0 mm 6 m/S 743 mmHg 67%
    10:00 +13°C° 0 mm 5 m/S 743 mmHg 65%
    11:00 +14°C° 0 mm 5 m/S 743 mmHg 63%
    12:00 +15°C° 0 mm 5 m/S 743 mmHg 61%
    13:00 +16°C° 0 mm 5 m/S 743 mmHg 59%
    14:00 +18°C° 0 mm 4 m/S 743 mmHg 57%
    15:00 +18°C° 0 mm 4 m/S 743 mmHg 56%
    16:00 +18°C° 0 mm 3 m/S 742 mmHg 54%
    17:00 +19°C° 0 mm 3 m/S 742 mmHg 53%
    18:00 +17°C° 0 mm 2 m/S 742 mmHg 58%
    19:00 +16°C° 0 mm 2 m/S 741 mmHg 63%
    20:00 +15°C° 0 mm 2 m/S 741 mmHg 69%
    21:00 +14°C° 0 mm 2 m/S 741 mmHg 70%
    22:00 +12°C° 0 mm 3 m/S 741 mmHg 72%
    23:00 +12°C° 0 mm 3 m/S 741 mmHg 73%
    Mehr zeigen